OBJECT A, 44486

Orbit data source: Space-Track

You're viewing an Uncataloged Satellite

Recently launched and/or uncataloged satellites may have evolving metadata. Metadata may include but not limited to: Owner, Maufacturer, Bus, Motor, and Mission.

OBJECT A, 44486 is a satellite owned by Qiandao Tansuo (CN) in SSO that was launched on Sat, 17 Aug 2019 UTC via a JIELONG-1 launch vehicle from the Jiuquan Satellite Launch Center, China (JSC). Unknown objects in Earth's orbit typically refer to objects detected orbiting the Earth but have not yet been identified or cataloged. These objects could be anything from previously untracked satellites, spent rocket stages, debris from satellite collisions, or even natural meteoroids temporarily captured by Earth's gravity.

Loading next visibility...
OBJECT A details
Identifier
44486, 2019-052A
Orbit
SSO
Last TLE update6 hours ago
Origin
Flag of CNQiandao Tansuo (CN / PRC)
ManufacturerQiandao Tansuo
MissionCommercial Imaging
Bus & MotorQS1, Unknown motor
Mass65 kg wet, 65 kg dry
Launch date (UTC)
2019-08-17 (5 years ago)
Launch vehicle
JIELONG-1
Launch site
Jiuquan Satellite Launch Center, China (JSC)
Object typeUnknown
Shape & HBRBox, 0.5 m
Radar Cross Section0.375 m², Medium (>0.1 m² and < 1m²)

Expand to show TLE details & history

TLE from 6 hours ago
0 OBJECT A
1 44486U 19052A   24361.18068941  .00059872  00000-0  13640-2 0  9993
2 44486  97.3858  69.6731 0009150 334.6503  25.4294 15.42691056296113
Epoch: 2024-12-26T04:20Z
Definitive object data (Epoch: 2024-12-26T04:20:11.565Z)
Latitude-0.00003°
Longitude-90.53886°
Altitude435.66 km
Speed7.654 km/s
True Right ascension04h 38m 41s
True Declination0° 00' 00"
Sunlit
Object was in full shadow at TLE epoch
Visualization TLE readout
Latitude-80.90946°
Longitude-36.61832°
Altitude463.015 km
Speed7.636 km/s
Apparent Right ascension21h 54m 30s
Apparent Declination-70° 10' 36"
Sunlit
Object is in daylight
Visualization observer readout
Local Sidereal Time09:33:00
Azimuth183.599° SSW
Elevation-59.61°
Doppler factor1
Orbital elements
Apogee altitude441.34 km
Perigee altitude428.872 km
Semi-major axis6,813.243 km
Eccentricity0.000915
Inclination97.3858°
RAAN69.6731°
Arg. of periapsis334.6503°
True anomaly25.47447°
Mean anomaly25.4294°
Eccentric anomaly25.45193°
Mean motion3.85933 °/min
BSTAR0.001364
Orbital period93.28 mins
Loading maneuver chart data...
Loading historical data...
Loading historical data...
Loading historical data...
Loading historical data...
Loading historical data...
Loading historical data...
Loading historical data...
Other satellites on launch #52 in the year 2019 (2019-08-17 UTC)

OBJECT A Visibility forecast

Observer location: undefined°, undefined

Span
Click to sort rows by Start time (UTC) header in descending order
Start Az.
Max El. time (UTC)
Max El. Az.
Max El.
End time (UTC)
End Az.
6 mins2024-12-26 17:20:51.798Z26.676° NE2024-12-26 17:23:51.798Z102.51° ESE34.848°2024-12-26 17:26:51.798Z172.554° S
4 mins2024-12-27 05:22:51.798Z210.86° SW2024-12-27 05:24:51.798Z266.852° W26.354°2024-12-27 05:26:51.798Z317.333° NNW
|